CW5920 Weather Reports


time (UTC)temp
C
wind
direction
speed
KPH
gust
KPH
rain 1hr
cm
rain 24hr
cm
rain mn
cm
humidity
%
barometer
mb
20190425023016 16 0.0 1.6 0.00 10.34 10.08 96 1010.9
20190425022016 16 277 0.0 3.2 0.00 10.34 10.08 96 1010.7
20190425021016 16 277 0.0 6.4 0.00 10.34 10.08 96 1010.4
20190425020016 16 288 3.2 12.9 0.00 10.34 10.08 96 1010.1
20190425015016 16 293 4.8 12.9 0.00 10.36 10.08 96 1009.8
20190425014015 16 285 3.2 11.3 0.00 10.36 10.08 96 1009.9
20190425013016 16 309 4.8 8.0 0.00 10.36 10.08 96 1009.9
20190425012015 16 333 3.2 9.7 0.00 10.36 10.08 96 1009.7
20190425011016 16 327 4.8 9.7 4.62 10.36 10.08 96 1009.2
20190425010016 16 312 3.2 9.7 4.62 10.36 10.08 96 1009.3
20190425005016 16 347 6.4 12.9 4.62 10.36 10.08 96 1009.1
20190425004015 16 345 4.8 9.7 4.62 10.36 10.08 96 1009.4
20190425003016 16 297 1.6 6.4 4.65 10.36 10.08 96 1010.1
20190425002016 16 337 6.4 14.5 7.01 10.36 10.08 95 1010.0
20190425001015 16 339 4.8 12.9 7.49 9.88 9.63 95 1009.5
20190425000016 16 350 9.7 17.7 10.72 9.88 9.63 95 1008.9
20190424235016 16 341 9.7 16.1 15.39 9.88 9.63 95 1009.3
20190424234016 16 320 6.4 14.5 20.50 9.88 9.63 95 1010.2
20190424233016 16 308 3.2 6.4 2.59 9.88 9.63 95 1010.9
20190424232016 16 292 3.2 6.4 2.90 9.65 9.40 95 1011.3
20190424231016 16 279 1.6 6.4 2.90 9.14 8.86 94 1011.6
20190424230015 16 252 1.6 8.0 2.97 8.81 8.56 95 1011.7
20190424225016 16 249 3.2 8.0 25.17 8.36 8.08 94 1011.8
20190424224016 16 258 3.2 9.7 20.14 7.85 7.57 94 1011.7
20190424223015 16 241 1.6 8.0 14.68 7.32 7.04 94 1011.8
20190424222015 16 231 1.6 8.0 9.19 6.76 6.48 94 1012.0
20190424221015 16 0.0 6.4 4.17 6.27 5.97 94 1011.8
20190424220016 16 279 0.0 6.4 0.18 5.87 5.59 94 1011.0
20190424215015 16 291 4.8 12.9 0.05 5.87 5.56 94 1010.9
20190424214016 16 291 6.4 16.1 0.00 5.87 5.56 94 1011.1
20190424213016 17 291 3.2 12.9 0.00 5.87 5.56 94 1011.5
20190424212016 17 294 8.0 19.3 0.00 5.87 5.56 94 1011.5
20190424211016 17 268 4.8 14.5 0.00 5.87 5.56 94 1011.9
20190424210016 17 252 3.2 12.9 0.00 5.87 5.56 93 1012.1
20190424205015 17 248 3.2 9.7 0.00 5.87 5.56 93 1012.5
20190424204015 17 245 3.2 12.9 0.00 5.87 5.56 93 1012.4
20190424203015 17 231 3.2 11.3 0.00 5.87 5.56 92 1012.8
20190424202015 18 238 0.0 3.2 0.00 5.87 5.56 92 1013.2
20190424201015 18 0.0 0.0 0.00 5.87 5.56 92 1013.4
20190424200016 18 238 1.6 4.8 0.00 5.87 5.56 91 1013.8
20190424195016 18 0.0 0.0 0.00 5.87 5.56 90 1013.9
20190424194016 18 235 0.0 6.4 0.00 5.87 5.56 90 1014.1
20190424193016 18 234 1.6 9.7 0.00 5.87 5.56 90 1013.9
20190424192016 18 286 3.2 11.3 0.00 5.87 5.56 90 1013.4
20190424191016 18 282 1.6 9.7 0.00 5.87 5.56 90 1013.1
20190424190016 18 302 3.2 11.3 0.00 5.87 5.56 90 1012.3
20190424185016 18 305 3.2 6.4 0.00 5.87 5.56 90 1012.0
20190424184015 18 316 4.8 14.5 0.00 5.87 5.56 89 1011.4
20190424183016 18 329 8.0 14.5 0.00 5.87 5.56 90 1010.7
20190424182016 18 15 3.2 8.0 0.00 5.87 5.56 90 1010.9
20190424181016 18 31 1.6 4.8 0.00 5.87 5.56 91 1011.1
20190424180016 18 31 0.0 8.0 0.00 5.87 5.56 93 1010.8
20190424175015 18 0.0 0.0 0.00 5.87 5.56 95 1011.2
20190424174016 17 33 0.0 6.4 2.84 5.87 5.56 95 1011.8
20190424173015 18 38 0.0 6.4 8.31 5.87 5.56 97 1011.7
20190424172016 17 44 1.6 6.4 14.10 5.87 5.56 97 1011.8
20190424171016 17 30 0.0 12.9 19.58 5.87 5.56 97 1012.1
20190424170015 17 327 4.8 12.9 25.07 5.87 5.56 97 1012.7
20190424165015 16 238 3.2 14.5 3.05 5.87 5.56 97 1014.7
20190424164015 16 223 6.4 24.1 3.30 5.56 5.28 97 1015.8
20190424163015 16 214 6.4 22.5 3.30 5.03 4.72 97 1016.1
20190424162015 16 120 12.9 27.4 3.12 4.45 4.14 97 1014.2
20190424161015 16 95 24.1 35.4 2.57 3.91 3.61 97 1012.2
20190424160015 16 86 24.1 33.8 20.37 3.35 3.05 97 1011.5
20190424155015 16 76 19.3 30.6 14.91 2.79 25.17 97 1012.0
20190424154016 16 65 14.5 20.9 9.42 22.66 19.68 97 1012.4
20190424153015 16 76 8.0 16.1 3.94 17.17 14.20 97 1013.3
20190424152015 16 103 11.3 17.7 0.03 13.26 10.29 97 1013.6
20190424151015 16 110 12.9 20.9 0.03 13.26 10.29 97 1014.1
20190424150016 16 78 8.0 14.5 0.03 13.26 10.29 97 1013.4
20190424145015 16 101 8.0 16.1 0.00 13.23 10.26 97 1013.3
20190424144015 16 156 9.7 16.1 0.00 13.23 10.26 97 1014.3
20190424143015 16 93 6.4 12.9 0.00 13.23 10.26 97 1012.9
20190424142015 16 91 9.7 17.7 0.00 13.23 10.26 97 1012.6
20190424141016 16 70 9.7 16.1 0.03 13.23 10.26 97 1012.9
20190424140015 15 52 6.4 16.1 0.03 13.23 10.26 97 1012.9
20190424135015 15 137 4.8 8.0 0.03 13.23 10.26 97 1013.1
20190424134015 15 130 4.8 11.3 0.03 13.23 10.26 97 1012.9
20190424133015 15 158 6.4 19.3 0.03 13.23 10.26 97 1013.2
20190424132015 15 156 16.1 33.8 0.03 13.23 10.26 97 1013.8
20190424131015 15 156 14.5 27.4 0.00 13.21 10.24 97 1014.1
20190424130015 15 161 11.3 22.5 0.00 13.21 10.24 97 1014.0
20190424125015 15 165 8.0 17.7 0.03 13.21 10.24 97 1013.9
20190424124016 15 158 12.9 22.5 0.05 13.21 10.24 97 1013.7
20190424123015 15 158 11.3 27.4 0.08 13.21 10.24 97 1014.1
20190424122015 15 163 14.5 25.7 0.10 13.21 10.24 97 1014.1
20190424121015 15 155 16.1 29.0 0.10 13.21 10.24 97 1014.0
20190424120015 15 156 12.9 24.1 0.10 13.21 10.24 97 1014.1
20190424115015 15 157 11.3 25.7 0.08 13.18 10.19 97 1013.9
20190424114015 15 143 11.3 20.9 0.05 13.16 10.19 97 1013.3
20190424113554 15 112 19.3 22.5 0.03 13.13 10.16 97 1013.1
20190424112516 15 143 16.1 25.7 0.03 13.13 10.16 97 1013.4
20190424111515 15 151 14.5 27.4 0.00 13.11 10.13 97 1013.8
20190424110515 15 134 17.7 29.0 0.00 13.11 10.13 97 1013.5
20190424105515 15 112 20.9 30.6 0.03 13.11 10.13 97 1012.6
20190424104515 15 104 17.7 29.0 0.05 13.11 10.13 97 1012.1
20190424103515 15 88 14.5 22.5 0.10 13.11 10.13 97 1012.1
20190424102515 15 80 14.5 24.1 0.20 13.11 10.13 97 1012.5
20190424101515 15 85 14.5 22.5 0.28 13.11 10.13 97 1013.5
20190424100515 15 87 16.1 22.5 0.38 13.11 10.13 97 1013.6
20190424095515 15 90 9.7 16.1 0.41 13.08 10.11 97 1014.0
20190424094515 15 85 8.0 12.9 0.43 13.06 10.08 97 1014.2
20190424093515 15 118 4.8 11.3 0.43 13.00 10.03 97 1014.7
20190424092515 15 104 4.8 11.3 0.38 12.90 9.93 97 1015.1
20190424091515 15 117 4.8 11.3 0.38 12.80 9.83 97 1015.4
20190424090515 15 99 8.0 12.9 0.38 12.73 9.75 97 1015.6
20190424085515 15 96 6.4 11.3 0.48 12.67 9.70 97 1015.2
20190424084515 15 295 3.2 4.8 0.66 12.62 9.65 97 1014.9
20190424083515 15 294 1.6 3.2 0.74 12.57 9.60 97 1015.2
20190424082516 15 294 0.0 3.2 3.25 12.50 9.53 97 1016.0
20190424081515 15 294 0.0 8.0 3.30 12.42 9.45 97 1016.6
20190424080515 15 293 4.8 8.0 3.23 12.34 9.37 97 1016.2
20190424075515 15 236 1.6 6.4 3.76 12.19 9.22 97 1016.9
20190424074516 15 75 0.0 4.8 3.53 11.96 8.99 97 1016.4
20190424073515 15 75 1.6 12.9 3.43 11.84 8.86 97 1015.9
20190424072515 15 63 6.4 14.5 0.86 9.25 6.27 97 1015.4
20190424071515 15 60 9.7 22.5 0.79 9.12 6.15 97 1015.2
20190424070515 15 74 9.7 19.3 0.79 9.12 6.15 97 1015.1
20190424065515 15 77 11.3 17.7 0.13 8.43 5.46 97 1015.5
20190424064515 15 72 14.5 29.0 0.20 8.43 5.46 97 1014.9
20190424063515 15 74 14.5 25.7 0.25 8.41 5.44 97 1015.0
20190424062515 15 72 17.7 29.0 0.38 8.38 5.41 97 1015.0
20190424061515 15 57 16.1 24.1 2.51 8.33 5.36 97 1015.0
20190424060515 15 66 16.1 25.7 4.72 8.33 5.36 97 1015.4
20190424055515 15 62 12.9 19.3 5.33 8.33 5.33 97 1016.1
20190424054516 15 83 9.7 17.7 5.31 8.26 5.23 96 1016.7
20190424053515 15 1 8.0 20.9 5.33 8.18 5.18 97 1016.8
20190424052515 15 7 6.4 14.5 5.18 8.03 5.03 97 1016.8
20190424051515 15 47 9.7 24.1 3.10 5.84 2.84 96 1016.3
20190424050516 15 30 12.9 27.4 0.97 3.63 0.64 97 1015.4
20190424045516 15 63 11.3 20.9 0.41 2.97 2.97 97 1016.1
20190424044516 15 98 11.3 17.7 0.43 2.92 2.90 96 1016.0
20190424043516 15 32 4.8 19.3 0.41 2.84 2.84 96 1015.5
20190424042516 15 52 14.5 22.5 0.48 2.82 2.82 96 1015.3
20190424041516 16 72 4.8 12.9 0.89 2.74 2.74 96 1015.9
20190424040516 16 66 4.8 9.7 1.24 2.67 2.67 96 1015.9
20190424035516 16 48 4.8 12.9 1.30 2.57 2.57 96 1015.8
20190424034516 16 34 3.2 12.9 1.63 2.49 2.49 96 1015.3
20190424033516 16 10 6.4 12.9 2.01 2.44 2.44 96 1015.1
20190424032516 16 12 4.8 17.7 1.93 2.34 2.34 96 1015.2
20190424031516 16 276 8.0 17.7 1.45 1.85 1.85 95 1015.6
20190424030516 16 290 12.9 32.2 1.02 1.42 1.42 95 1014.9
20190424025516 16 315 14.5 30.6 0.86 1.27 1.27 95 1014.4
20190424024516 16 278 6.4 24.1 0.53 0.86 0.86 95 1014.6
20190424023516 16 278 9.7 24.1 0.10 0.43 0.43 94 1014.9